www.pogodaiklimat.ru

Погода и климат >> Архив погоды >> Россия >> Ленинградская область >> Лодейное Поле


ПОГОДА в Лодейном Поле

  • Прогноз погоды в Лодейном Поле
  • Монитор погоды в Лодейном Поле

АРХИВ ПОГОДЫ в Лодейном Поле

Время (UTC), дата Ветер
(напр.,м/с)
 
Видим.   Явления Облачность Т
(С)
Тd
(С)
f
(%)
Тe
(С)
Тes
(С)
Комфортность P
(гПа)
Po
(гПа)
Тmin
(С)
Tmax
(С)
R
(мм)
R24
(мм)
S
(см)
15 16.09 штиль 0 10 км {ливн. осадки} 9/6 300 м
[Cb cap Ac trans]
+10.1 +8.9 92 +9 +9 985.3 982.5 5
18 16.09 СЗ 1 10 км {ливн. осадки} 9/8 300 м
[Cb cap Ac trans]
+8.0 +6.5 90 +7 +7 988.0 985.2 +10.1 5
21 16.09 З 1 10 км 9/8 300 м
[Cb cap Ac trans]
+7.4 +6.3 93 +6 +6 989.3 986.5
00 17.09 З 1 10 км 9/8 330 м
[Cb cap Ac trans]
+6.9 +5.8 93 +6 +6 989.8 987.0
03 17.09 З 1 4000 м слаб. ливневой дождь 9/8 300 м
[Cb cap Ac trans]
+7.0 +6.1 94 +6 +6 990.0 987.2 +6.7 1
06 17.09 СЗ 1 4000 м дымка {ливн. осадки} 9/8 180 м
[Cb cap Ac trans]
+8.4 +7.1 92 +8 +8 990.7 987.9 +6.7 0.5
09 17.09 СЗ 2 10 км 9/4 300 м
[Sc Ac trans]
+10.6 +5.9 73 +9 +11 992.1 989.3
12 17.09 СЗ 2 10 км {ливн. осадки} 8/6 300 м
[Cb cap Ac trans]
+13.2 +5.0 58 +13 +14 992.9 990.2
15 17.09 СЗ 1 10 км в посл. час ливневой дождь 9/8 360 м
[Cb cap Ac trans]
+9.0 +7.7 92 +8 +8 994.2 991.4 1
18 17.09 З 1 10 км {ливн. осадки} 9/5 600 м
[Cb cap Ac trans]
+7.7 +6.8 94 +7 +7 995.1 992.3 +13.5 2
21 17.09 штиль 0 10 км 9/6 600 м
[Sc Ac trans]
+7.4 +6.3 93 +6 +6 995.6 992.8
00 18.09 штиль 0 10 км 9/9 720 м
[Sc]
+7.3 +6.2 93 +6 +6 996.2 993.4
03 18.09 С 1 10 км 10/10 480 м
[Sc]
+6.5 +5.6 94 +5 +5 997.0 994.2 +6.4 0.3
06 18.09 СВ 3 10 км 10/10 540 м
[Sc]
+7.8 +5.1 83 +5 +5 998.3 995.5 +6.4
09 18.09 С 2 10 км слаб. ливневой дождь 9/9 600 м
[Cb cap]
+9.2 +4.7 73 +8 +8 1000.0 997.2
12 18.09 С 3 10 км {ливн. осадки} 9/8 840 м
[Cb cap Ac trans]
+9.3 +3.3 66 +7 +8 1001.5 998.7
15 18.09 С 2 10 км 9/8 800 м
[Cb cap Ac trans]
+8.1 +3.7 74 +6 +6 1003.1 1000.3 0.6
18 18.09 С 2 10 км 8/3 600 м
[Sc Ac trans]
+6.2 +3.1 81 +4 +4 1004.9 1002.0 +10.8 0.6
21 18.09 С 1 10 км ?/? +5.2 +2.8 84 +4 +4 1006.0 1003.1
00 19.09 С 1 10 км 9/0
[Ac trans]
+5.0 +2.5 84 +4 +4 1007.3 1004.4
03 19.09 С 1 10 км ясно +2.1 +1.3 94 0 0 1008.6 1005.7 +2.1
06 19.09 С 1 10 км 3/0
[Ci fib]
+4.1 +1.6 84 +3 +4 1010.3 1007.4 -0.4
09 19.09 СЗ 2 10 км 8/6 600 м
[Cu med, cong Ci sp]
+8.2 -0.5 54 +7 +9 1011.3 1008.5
12 19.09 СЗ 1 10 км 8/5 600 м
[Cu med, cong Ci sp]
+8.4 -1.6 49 +8 +10 1011.9 1009.1
15 19.09 З 1 10 км 6/3 600 м
[Sc Ci sp]
+7.4 +1.2 65 +7 +7 1012.1 1009.3
18 19.09 штиль 0 10 км 4/0
[Ci sp]
+0.3 -0.5 94 -1 -1 1012.6 1009.6 +9.9
21 19.09 штиль 0 10 км ясно -0.9 -1.5 96 -2 -2 1012.1 1009.1
00 20.09 Ю 1 10 км слаб. ливневой дождь 10/6 600 м
[Cb cap Ac As]
+2.5 +0.6 87 +1 +1 1011.4 1008.5
03 20.09 Ю 1 10 км в посл. час ливневой дождь {гроза} 9/8 870 м
[Cb cap Ac trans]
+1.8 +1.3 96 -0 -0 1010.8 1007.8 -1.5 8
06 20.09 СЗ 1 10 км {гроза, ливн. осадки} 9/9 300 м
[Cb cap]
+3.0 +2.0 93 +1 +2 1011.7 1008.8 -1.5 8
09 20.09 З 2 10 км 8/1 300 м
[Sc Ci fib]
+6.4 +2.5 76 +4 +8 1012.7 1009.8
12 20.09 З 3 10 км 9/6 300 м
[Cb cap Ci fib]
+9.0 -1.0 50 +7 +8 1012.1 1009.3
15 20.09 ЮЗ 1 10 км 4/3 300 м
[Cb cap Ac trans]
+6.7 +0.6 65 +6 +6 1012.2 1009.3
18 20.09 ЮЗ 1
{10}
10 км {ливн. осадки} ясно +0.3 -0.5 94 -2 -2 1012.5 1009.5 +9.2 0.3
21 20.09 штиль 0 10 км ясно -0.9 -1.5 96 -2 -2 1012.1 1009.1
00 21.09 штиль 0 10 км 4/0
[Ac trans]
-0.4 -1.0 96 -2 -2 1011.5 1008.5
03 21.09 Ю 1 10 км 4/0
[Ac trans]
-0.9 -1.2 98 -3 -3 1010.4 1007.4 -1.4 0.3
06 21.09 Ю 1 10 км 8/0
[Ac trans]
+3.7 +3.2 97 +2 +3 1009.8 1006.9 -1.4
09 21.09 Ю 2 10 км 9/3 600 м
[Sc Ac trans Ci sp]
+7.8 +3.6 75 +6 +8 1008.5 1005.7
12 21.09 ЮЗ 2 10 км 9/4 600 м
[Sc Ac trans Ci sp]
+8.5 +2.0 64 +7 +8 1007.2 1004.4
15 21.09 штиль 0 10 км 9/4 600 м
[Sc Ac trans]
+7.0 +3.5 78 +6 +6 1005.6 1002.8
18 21.09 штиль 0 4000 м дымка 10/0
[Ac As]
+3.4 +2.7 95 +2 +2 1004.7 1001.8 +9.1
21 21.09 СЗ 1 4000 м слаб. ливневой дождь 10/6 300 м
[Cb cap Ac As]
+3.6 +3.1 97 +2 +2 1003.7 1000.8
00 22.09 З 1 4000 м дымка {ливн. осадки} 3/3 300 м
[Cb cap]
+1.0 +0.5 96 -1 -1 1003.0 1000.1
03 22.09 З 1 4000 м дымка ясно -1.0 -1.3 98 -3 -3 1004.1 1001.2 -1.4 1
06 22.09 СЗ 1 4000 м дымка 9/9 600 м
[Sc]
+2.2 +1.7 96 0 +1 1005.8 1002.9 -1.4 1
09 22.09 СЗ 2 10 км слаб. ливневой дождь 9/9 420 м
[Cb cap]
+6.4 +1.1 69 +4 +5 1007.5 1004.6
12 22.09 С 3 10 км {ливн. осадки} 6/6 300 м
[Cb cap]
+8.1 -0.6 54 +6 +7 1009.0 1006.2
15 22.09 СЗ 2 10 км {ливн. осадки} 3/3 300 м
[Sc]
+6.2 +0.9 69 +4 +4 1012.8 1007.9 0.0
18 22.09 З 1 10 км {ливн. осадки} ясно +2.7 0.0 82 +1 +1 1012.0 1009.1 +8.4 +8.4 0.0
21 22.09 З 1 10 км 5/0
[Ci fib]
+1.5 +0.4 92 -0 -0 1013.2 1010.2
00 23.09 З 1 10 км 6/0
[Ac trans]
+1.1 0.0 92 -1 -1 1014.0 1011.0
03 23.09 З 2 10 км 3/0
[Ac trans]
-0.2 -0.8 96 -4 -4 1014.4 1011.4 -0.7
06 23.09 З 2 10 км 6/5 300 м
[Sc Ci fib]
+1.4 -0.3 88 -2 -1 1015.0 1012.0 -0.7
09 23.09 СЗ 2 10 км 10/10 570 м
[Cb cap]
+3.9 -0.4 74 +1 +1 1015.8 1012.9
12 23.09 З 2 10 км 8/8 800 м
[Sc]
+6.7 -0.3 61 +5 +5 1015.8 1012.9

 

Местоположение метеостанции Лодейное Поле (Ленинградская область, Россия): широта 60.72 долгота 33.55 высота над уровнем моря 23 м.

В архиве по умолчанию представлена погода в Лодейном Поле за последнюю неделю. Архивные данные за месяц целиком и за предыдущие месяцы, начиная с января 2011 года, Вы можете получить, выбрав интересующий диапазон дат из раскрывающегося списка и нажав кнопку "Ввод!".


*Определитесь, кто Вы:
робот инопланетянин человек

Внимание! Время в таблицах - всемирное. Для получения местного времени необходимо прибавить поправку, которая равна 3 ч.

Смотрите также архив погоды в соседних городах и на ближайших метеорологических станциях:

Погода в Олонце (Карелия, Россия) (42 км)
Погода в Винницах (Ленинградская область, Россия) (68 км)
Погода в Шугозере (Ленинградская область, Россия) (90 км)
Погода в Новой Ладоге (Ленинградская область, Россия) (95 км)
Погода в Пряже (Ленинградская область, Россия) (107 км)
Погода в Вознесенье (Ленинградская область, Россия) (110 км)
Погода в Тихвине (Ленинградская область, Россия) (119 км)
Погода в Петрозаводске (Карелия, Россия) (128 км)
Погода в Ефимовской (Ленинградская область, Россия) (150 км)
Погода в Маячном (Карелия, Россия) (152 км)

Пояснения к столбцам:

Ветер - указаны скорость ветра в м/с - средняя за 10 мин, порывы в срок и между сроками (в фигурных скобках) и направление, откуда дует ветер: С - северный, СВ - северо-восточный, В - восточный, ЮВ - юго-восточный, Ю - южный, ЮЗ - юго-западный, З - западный, СЗ - северо-западный.
Видимость - горизонтальная дальность видимости в метрах или километрах. При видимости от 1 до 10 км при отсутствии осадков обычно наблюдается дымка, при ухудшении видимости до 1 км и менее - туман. В сухую погоду видимость может ухудшаться дымом, пылью или мглою.
Явления - указаны атмосферные явления, наблюдавшиеся в срок или в последний час перед сроком; фигурными скобками обозначены явления, наблюдавшиеся между сроками (за 1-3 часа до срока); квадратными скобками обозначены град или гололедные отложения с указанием их диаметра в мм.
Облачность - указаны через наклонную черту общая и нижняя облачность в баллах и высота нижней границы облаков в метрах; квадратными скобками обозначены формы облаков: Ci - перистые, Cs - перисто-слоистые, Cc - перисто-кучевые, Ac - высококучевые, As - высокослоистые, Sc - слоисто-кучевые, Ns - слоисто-дождевые, Cu - кучевые, Cb - кучево-дождевые. Подробнее классификацию облаков см. в Атласе облаков (PDF).
T - Температура воздуха - температура, измеренная на высоте 2 м над землей.
Td - Температура точки росы - температура, при понижении до которой содержащийся в воздухе водяной пар достигнет насыщения.
f - Относительная влажность воздуха - влажноcть воздуха, измеренная на высоте 2 м над землей.
Te - Эффективная температура - температура, которую ощущает одетый по сезону человек в тени. Характеристика душности погоды. При расчете учитывается влияние влажности воздуха и скорости ветра на теплоощущения человека.
Tes - Эффективная температура на солнце - температура, которую ощущает человек, с поправкой на солнечный нагрев. Характеристика знойности погоды. Зависит от высоты солнца над горизонтом, облачности и скорости ветра. Ночью, в пасмурную погоду, а также при ветре 12 м/с и более поправка равна нулю.
P - Атмосферное давление - приведенное к уровню моря атмосферное давление.
Po - Атмосферное давление - измеренное на уровне метеостанции атмосферное давление.
Tmin - Минимальная температура - минимум температуры воздуха на высоте 2 м над землей.
Tmax - Максимальная температура - максимум температуры воздуха на высоте 2 м над землей.
R - Количество осадков - Количество выпавших осадков за период времени, мм. При наведении курсора мыши на число - период времени, за который выпало указанное количество осадков.
R24 - Количество осадков - Количество выпавших осадков за 24 часа, мм.
S - Снежный покров - Высота снежного покрова, см. При наведении курсора мыши на число - состояние снежного покрова и степень покрытия местности в баллах.